Weather History for KRCR - January, 2014

Change the Weather History Date:

Wednesday, January 29, 2014

  Actual Average Record
Temperature  
Mean Temperature 12 °F -  
Max Temperature 23 °F 30 °F 41 °F (2015)
Min Temperature 1 °F 12 °F 1 °F (2014)
Degree Days  
Heating Degree Days 53    
Moisture  
Dew Point 1 °F    
Average Humidity 59    
Maximum Humidity 72    
Minimum Humidity 46    
Precipitation  
Precipitation 0.00 in - - ()
Sea Level Pressure  
Sea Level Pressure 30.21 in    
Wind  
Wind Speed 9 mph (SW)    
Max Wind Speed 17 mph    
Max Gust Speed 21 mph    
Visibility 10 miles    
Events      
Averages and records for this station are not official NWS values.
T = Trace of Precipitation, MM = Missing Value Source: NWS Daily Summary

Daily Weather History Graph

Daily Weather History Graph

Search for Another Location

Airport or City:

Trip Planner

Search our weather history database for the weather conditions in past years. The results will help you decide how hot, cold, wet, or windy it might be!

Date:

Astronomy

Jan. 29, 2014 Rise Set
Actual Time 7:58 AM EST 5:57 PM EST
Civil Twilight 7:28 AM EST 6:27 PM EST
Nautical Twilight 6:55 AM EST 7:00 PM EST
Astronomical Twilight 6:23 AM EST 7:32 PM EST
Moon 6:34 AM EST (1/29) 4:56 PM EST (1/29)
Length of Visible Light 10h 58m
Length of Day
9h 59m
Waning Crescent, 2% of the Moon is Illuminated
Jan 29
Waning Crescent
Jan 30
New
Feb 6
First Quarter
Feb 14
Full
Feb 22
Last Quarter

Hourly Weather History & Observations

Time (EST) Temp. Windchill Dew Point Humidity Pressure Visibility Wind Dir Wind Speed Gust Speed Precip Events Conditions
12:15 AM 1.4 °F -9.9 °F -5.8 °F 72% 30.26 in 10.0 mi SW 5.8 mph - N/A   Clear
12:35 AM 1.4 °F -11.3 °F -5.8 °F 72% 30.25 in 10.0 mi SW 6.9 mph - N/A   Clear
12:55 AM 3.2 °F -10.3 °F -5.8 °F 66% 30.25 in 10.0 mi SSW 8.1 mph - N/A   Clear
1:15 AM 3.2 °F -10.3 °F -5.8 °F 66% 30.24 in 10.0 mi SSW 8.1 mph - N/A   Clear
1:35 AM 3.2 °F -10.3 °F -4.0 °F 72% 30.24 in 10.0 mi SSW 8.1 mph - N/A   Clear
1:55 AM 3.2 °F -10.3 °F -4.0 °F 72% 30.24 in 10.0 mi SW 8.1 mph - N/A   Clear
2:15 AM 3.2 °F -9.1 °F -4.0 °F 72% 30.23 in 10.0 mi SSW 6.9 mph - N/A   Clear
2:35 AM 3.2 °F -10.3 °F -4.0 °F 72% 30.23 in 10.0 mi SSW 8.1 mph - N/A   Clear
2:55 AM 3.2 °F -10.3 °F -4.0 °F 72% 30.23 in 10.0 mi SSW 8.1 mph - N/A   Clear
3:15 AM 3.2 °F -10.3 °F -4.0 °F 72% 30.23 in 10.0 mi SSW 8.1 mph - N/A   Clear
3:35 AM 3.2 °F -13.1 °F -4.0 °F 72% 30.23 in 10.0 mi SW 11.5 mph - N/A   Clear
3:55 AM 5.0 °F -10.0 °F -4.0 °F 66% 30.22 in 10.0 mi SW 10.4 mph - N/A   Clear
4:15 AM 5.0 °F -10.8 °F -4.0 °F 66% 30.22 in 10.0 mi SW 11.5 mph - N/A   Clear
4:35 AM 5.0 °F -8.1 °F -4.0 °F 66% 30.21 in 10.0 mi WSW 8.1 mph - N/A   Clear
4:55 AM 5.0 °F -8.1 °F -4.0 °F 66% 30.21 in 10.0 mi WSW 8.1 mph - N/A   Clear
5:15 AM 5.0 °F -9.1 °F -4.0 °F 66% 30.21 in 10.0 mi WSW 9.2 mph - N/A   Clear
5:35 AM 5.0 °F -10.0 °F -4.0 °F 66% 30.20 in 10.0 mi WSW 10.4 mph - N/A   Clear
5:55 AM 5.0 °F -10.0 °F -4.0 °F 66% 30.21 in 10.0 mi WSW 10.4 mph - N/A   Clear
6:15 AM 5.0 °F -9.1 °F -4.0 °F 66% 30.21 in 10.0 mi SW 9.2 mph - N/A   Clear
6:35 AM 5.0 °F -9.1 °F -4.0 °F 66% 30.21 in 10.0 mi SW 9.2 mph - N/A   Clear
6:55 AM 5.0 °F -9.1 °F -4.0 °F 66% 30.21 in 10.0 mi SW 9.2 mph - N/A   Clear
7:15 AM 5.0 °F -8.1 °F -4.0 °F 66% 30.22 in 10.0 mi WSW 8.1 mph - N/A   Clear
7:35 AM 5.0 °F -9.1 °F -4.0 °F 66% 30.22 in 10.0 mi SW 9.2 mph - N/A   Clear
7:55 AM 5.0 °F -9.1 °F -4.0 °F 66% 30.22 in 10.0 mi WSW 9.2 mph - N/A   Clear
8:15 AM 5.0 °F -9.1 °F -4.0 °F 66% 30.22 in 10.0 mi WSW 9.2 mph - N/A   Clear
8:35 AM 5.0 °F -9.1 °F -4.0 °F 66% 30.22 in 10.0 mi WSW 9.2 mph 16.1 mph N/A   Clear
8:55 AM 6.8 °F -6.9 °F -4.0 °F 61% 30.23 in 10.0 mi WSW 9.2 mph 17.3 mph N/A   Clear
9:15 AM 8.6 °F -7.0 °F -2.2 °F 62% 30.23 in 10.0 mi SW 12.7 mph - N/A   Clear
9:35 AM 8.6 °F -5.5 °F -0.4 °F 67% 30.23 in 10.0 mi WSW 10.4 mph - N/A   Clear
9:55 AM 10.4 °F -4.1 °F -0.4 °F 62% 30.24 in 10.0 mi WSW 11.5 mph - N/A   Clear
10:15 AM 10.4 °F -4.8 °F -0.4 °F 62% 30.24 in 10.0 mi SW 12.7 mph - N/A   Clear
10:35 AM 12.2 °F -1.0 °F -0.4 °F 57% 30.24 in 10.0 mi West 10.4 mph 16.1 mph N/A   Clear
10:55 AM 12.2 °F -0.2 °F -0.4 °F 57% 30.25 in 10.0 mi WSW 9.2 mph 19.6 mph N/A   Clear
11:15 AM 14.0 °F 1.2 °F 1.4 °F 57% 30.25 in 10.0 mi WSW 10.4 mph - N/A   Clear
11:35 AM 14.0 °F -0.8 °F 1.4 °F 57% 30.25 in 10.0 mi WSW 13.8 mph 18.4 mph N/A   Clear
11:55 AM 15.8 °F 2.1 °F 1.4 °F 53% 30.25 in 10.0 mi WSW 12.7 mph - N/A   Clear
12:15 PM 17.6 °F 4.3 °F 1.4 °F 49% 30.24 in 10.0 mi SW 12.7 mph 18.4 mph N/A   Clear
12:35 PM 17.6 °F 5.7 °F 3.2 °F 53% 30.23 in 10.0 mi SW 10.4 mph - N/A   Clear
12:55 PM 17.6 °F 4.3 °F 3.2 °F 53% 30.22 in 10.0 mi SW 12.7 mph 17.3 mph N/A   Clear
1:15 PM 19.4 °F 9.5 °F 5.0 °F 54% 30.21 in 10.0 mi SW 8.1 mph 17.3 mph N/A   Clear
1:35 PM 19.4 °F 6.6 °F 3.2 °F 49% 30.20 in 10.0 mi WSW 12.7 mph 18.4 mph N/A   Clear
1:55 PM 21.2 °F 8.9 °F 3.2 °F 46% 30.20 in 10.0 mi West 12.7 mph - N/A   Clear
2:15 PM 21.2 °F 6.8 °F 3.2 °F 46% 30.20 in 10.0 mi WSW 17.3 mph 20.7 mph N/A   Clear
2:35 PM 21.2 °F 8.9 °F 5.0 °F 50% 30.21 in 10.0 mi WSW 12.7 mph 18.4 mph N/A   Clear
2:55 PM 23.0 °F 10.6 °F 5.0 °F 46% 30.21 in 10.0 mi West 13.8 mph 19.6 mph N/A   Clear
3:15 PM 23.0 °F 10.6 °F 6.8 °F 50% 30.21 in 10.0 mi West 13.8 mph 18.4 mph N/A   Clear
3:35 PM 23.0 °F 10.6 °F 6.8 °F 50% 30.22 in 10.0 mi SW 13.8 mph 17.3 mph N/A   Clear
3:55 PM 23.0 °F 11.1 °F 6.8 °F 50% 30.22 in 10.0 mi SW 12.7 mph 17.3 mph N/A   Clear
4:15 PM 23.0 °F 13.1 °F 6.8 °F 50% 30.21 in 10.0 mi SW 9.2 mph - N/A   Clear
4:35 PM 23.0 °F 12.4 °F 8.6 °F 54% 30.21 in 10.0 mi SW 10.4 mph - N/A   Clear
4:55 PM 23.0 °F 14.7 °F 6.8 °F 50% 30.20 in 10.0 mi SW 6.9 mph - N/A   Clear
5:15 PM 23.0 °F 14.7 °F 6.8 °F 50% 30.20 in 10.0 mi SW 6.9 mph - N/A   Clear
5:35 PM 21.2 °F 14.9 °F 6.8 °F 54% 30.20 in 10.0 mi SSW 4.6 mph - N/A   Clear
5:55 PM 21.2 °F 16.4 °F 6.8 °F 54% 30.20 in 10.0 mi South 3.5 mph - N/A   Clear
6:15 PM 19.4 °F 12.8 °F 6.8 °F 58% 30.20 in 10.0 mi South 4.6 mph - N/A   Clear
6:35 PM 19.4 °F 11.5 °F 5.0 °F 54% 30.20 in 10.0 mi South 5.8 mph - N/A   Clear
6:55 PM 19.4 °F 11.5 °F 5.0 °F 54% 30.19 in 10.0 mi South 5.8 mph - N/A   Clear
7:15 PM 17.6 °F 10.7 °F 5.0 °F 58% 30.19 in 10.0 mi South 4.6 mph - N/A   Clear
7:35 PM 17.6 °F 8.2 °F 5.0 °F 58% 30.18 in 10.0 mi South 6.9 mph - N/A   Clear
7:55 PM 19.4 °F 9.5 °F 5.0 °F 54% 30.18 in 10.0 mi South 8.1 mph - N/A   Clear
8:15 PM 19.4 °F 9.5 °F 5.0 °F 54% 30.17 in 10.0 mi South 8.1 mph - N/A   Clear
8:35 PM 19.4 °F 9.5 °F 6.8 °F 58% 30.17 in 10.0 mi South 8.1 mph - N/A   Clear
8:55 PM 19.4 °F 7.2 °F 6.8 °F 58% 30.17 in 10.0 mi South 11.5 mph - N/A   Clear
9:15 PM 21.2 °F 9.5 °F 6.8 °F 54% 30.16 in 10.0 mi South 11.5 mph 16.1 mph N/A   Clear
9:35 PM 21.2 °F 9.5 °F 6.8 °F 54% 30.15 in 10.0 mi South 11.5 mph - N/A   Clear
9:55 PM 19.4 °F 7.9 °F 6.8 °F 58% 30.15 in 10.0 mi South 10.4 mph - N/A   Clear
10:15 PM 19.4 °F 7.2 °F 6.8 °F 58% 30.15 in 10.0 mi South 11.5 mph - N/A   Clear
10:35 PM 21.2 °F 8.3 °F 6.8 °F 54% 30.15 in 10.0 mi SSW 13.8 mph 17.3 mph N/A   Clear
10:55 PM 19.4 °F 7.2 °F 6.8 °F 58% 30.15 in 10.0 mi South 11.5 mph 17.3 mph N/A   Clear
11:15 PM 19.4 °F 7.9 °F 5.0 °F 54% 30.15 in 10.0 mi South 10.4 mph - N/A   Clear
11:35 PM 19.4 °F 8.6 °F 5.0 °F 54% 30.15 in 10.0 mi South 9.2 mph - N/A   Clear
11:55 PM 19.4 °F 7.9 °F 5.0 °F 54% 30.13 in 10.0 mi South 10.4 mph - N/A   Clear